TimePDT,TemperatureF,Dew PointF,Humidity,Sea Level PressureIn,VisibilityMPH,Wind Direction,Wind SpeedMPH,Gust SpeedMPH,PrecipitationIn,Events,Conditions,WindDirDegrees,DateUTC
12:15 AM,75.2,55.4,50,29.82,10.0,NW,6.9,-,N/A,,Clear,320,2013-08-18 07:15:00
12:35 AM,75.2,55.4,50,29.83,10.0,NW,5.8,-,N/A,,Clear,320,2013-08-18 07:35:00
12:55 AM,73.4,55.4,53,29.82,10.0,NW,5.8,-,N/A,,Clear,320,2013-08-18 07:55:00
1:15 AM,73.4,53.6,50,29.82,10.0,NW,4.6,-,N/A,,Clear,320,2013-08-18 08:15:00
1:35 AM,71.6,55.4,57,29.82,10.0,NW,3.5,-,N/A,,Clear,310,2013-08-18 08:35:00
1:55 AM,71.6,55.4,57,29.82,10.0,NW,4.6,-,N/A,,Clear,320,2013-08-18 08:55:00
2:15 AM,69.8,53.6,56,29.82,10.0,Calm,Calm,-,N/A,,Clear,0,2013-08-18 09:15:00
2:35 AM,66.2,55.4,68,29.82,10.0,SW,4.6,-,N/A,,Clear,230,2013-08-18 09:35:00
2:55 AM,66.2,53.6,64,29.82,10.0,West,4.6,-,N/A,,Clear,260,2013-08-18 09:55:00
3:15 AM,68.0,53.6,60,29.82,10.0,West,5.8,-,N/A,,Clear,260,2013-08-18 10:15:00
3:35 AM,68.0,53.6,60,29.82,10.0,Calm,Calm,-,N/A,,Clear,0,2013-08-18 10:35:00
3:55 AM,66.2,53.6,64,29.82,10.0,ESE,4.6,-,N/A,,Clear,120,2013-08-18 10:55:00
4:15 AM,66.2,53.6,64,29.82,10.0,SSE,4.6,-,N/A,,Clear,150,2013-08-18 11:15:00
4:35 AM,66.2,53.6,64,29.83,10.0,SSE,4.6,-,N/A,,Clear,150,2013-08-18 11:35:00
4:55 AM,64.4,55.4,73,29.83,10.0,SSE,3.5,-,N/A,,Clear,150,2013-08-18 11:55:00
5:15 AM,66.2,55.4,68,29.83,10.0,SSE,3.5,-,N/A,,Clear,160,2013-08-18 12:15:00
5:35 AM,66.2,53.6,64,29.83,10.0,SSE,4.6,-,N/A,,Clear,160,2013-08-18 12:35:00
5:55 AM,66.2,53.6,64,29.84,10.0,South,4.6,-,N/A,,Clear,170,2013-08-18 12:55:00
6:15 AM,66.2,53.6,64,29.84,10.0,South,4.6,-,N/A,,Clear,170,2013-08-18 13:15:00
6:35 AM,66.2,55.4,68,29.85,10.0,ESE,4.6,-,N/A,,Clear,110,2013-08-18 13:35:00
6:55 AM,66.2,55.4,68,29.85,10.0,Calm,Calm,-,N/A,,Clear,0,2013-08-18 13:55:00
7:15 AM,69.8,55.4,60,29.85,10.0,Calm,Calm,-,N/A,,Clear,0,2013-08-18 14:15:00
7:35 AM,69.8,55.4,60,29.86,10.0,Calm,Calm,-,N/A,,Clear,0,2013-08-18 14:35:00
7:55 AM,69.8,57.2,64,29.86,10.0,ESE,3.5,-,N/A,,Clear,110,2013-08-18 14:55:00
8:15 AM,71.6,57.2,60,29.87,10.0,ESE,3.5,-,N/A,,Clear,110,2013-08-18 15:15:00
8:35 AM,73.4,55.4,53,29.87,10.0,ESE,4.6,-,N/A,,Clear,110,2013-08-18 15:35:00
8:55 AM,73.4,55.4,53,29.87,10.0,Calm,Calm,-,N/A,,Clear,0,2013-08-18 15:55:00
9:15 AM,75.2,55.4,50,29.86,10.0,Calm,Calm,-,N/A,,Clear,0,2013-08-18 16:15:00
9:35 AM,78.8,55.4,44,29.87,10.0,Calm,Calm,-,N/A,,Clear,0,2013-08-18 16:35:00
9:55 AM,80.6,57.2,45,29.86,10.0,Calm,Calm,-,N/A,,Clear,0,2013-08-18 16:55:00
10:15 AM,80.6,57.2,45,29.87,10.0,Calm,Calm,-,N/A,,Clear,0,2013-08-18 17:15:00
10:35 AM,80.6,57.2,45,29.86,10.0,Calm,Calm,-,N/A,,Clear,0,2013-08-18 17:35:00
10:55 AM,82.4,57.2,42,29.87,10.0,West,4.6,-,N/A,,Clear,280,2013-08-18 17:55:00
11:15 AM,84.2,55.4,37,29.86,10.0,WNW,3.5,-,N/A,,Clear,300,2013-08-18 18:15:00
11:35 AM,82.4,55.4,39,29.86,10.0,West,4.6,-,N/A,,Clear,270,2013-08-18 18:35:00
11:55 AM,84.2,57.2,40,29.86,10.0,WNW,5.8,-,N/A,,Clear,290,2013-08-18 18:55:00
12:15 PM,84.2,59.0,42,29.85,10.0,NW,8.1,-,N/A,,Clear,310,2013-08-18 19:15:00
12:35 PM,86.0,57.2,37,29.85,10.0,WNW,8.1,-,N/A,,Clear,290,2013-08-18 19:35:00
12:55 PM,86.0,57.2,37,29.84,10.0,WNW,9.2,-,N/A,,Clear,300,2013-08-18 19:55:00
1:15 PM,87.8,57.2,35,29.84,10.0,West,8.1,-,N/A,,Clear,280,2013-08-18 20:15:00
1:35 PM,87.8,57.2,35,29.83,10.0,WNW,8.1,-,N/A,,Clear,290,2013-08-18 20:35:00
1:55 PM,87.8,59.0,38,29.83,10.0,WNW,8.1,-,N/A,,Clear,290,2013-08-18 20:55:00
2:15 PM,87.8,60.8,40,29.82,10.0,WNW,8.1,-,N/A,,Clear,290,2013-08-18 21:15:00
2:35 PM,89.6,59.0,36,29.81,10.0,NW,6.9,-,N/A,,Clear,310,2013-08-18 21:35:00
2:55 PM,91.4,60.8,36,29.80,10.0,NW,5.8,-,N/A,,Clear,310,2013-08-18 21:55:00
3:15 PM,91.4,60.8,36,29.78,10.0,North,6.9,-,N/A,,Clear,360,2013-08-18 22:15:00
3:35 PM,93.2,60.8,34,29.77,10.0,North,5.8,-,N/A,,Clear,350,2013-08-18 22:35:00
3:55 PM,93.2,60.8,34,29.76,10.0,North,6.9,-,N/A,,Clear,10,2013-08-18 22:55:00
4:15 PM,93.2,60.8,34,29.75,10.0,North,5.8,-,N/A,,Clear,10,2013-08-18 23:15:00
4:35 PM,95.0,57.2,28,29.74,10.0,NNE,6.9,-,N/A,,Clear,20,2013-08-18 23:35:00
4:55 PM,95.0,57.2,28,-9999,10.0,North,-9999.0,-,N/A,,Clear,0,2013-08-18 23:55:00
5:15 PM,96.8,55.4,25,29.74,10.0,NNW,6.9,-,N/A,,Clear,340,2013-08-19 00:15:00
5:35 PM,96.8,55.4,25,29.73,10.0,NNW,6.9,-,N/A,,Clear,340,2013-08-19 00:35:00
5:55 PM,96.8,55.4,25,29.72,10.0,NNW,5.8,-,N/A,,Clear,340,2013-08-19 00:55:00
6:15 PM,96.8,55.4,25,29.72,10.0,North,3.5,-,N/A,,Clear,360,2013-08-19 01:15:00
6:35 PM,93.2,59.0,32,29.71,10.0,West,4.6,-,N/A,,Clear,270,2013-08-19 01:35:00
6:55 PM,91.4,60.8,36,29.72,10.0,West,5.8,-,N/A,,Clear,270,2013-08-19 01:55:00
7:15 PM,89.6,60.8,38,29.72,10.0,WSW,5.8,-,N/A,,Clear,240,2013-08-19 02:15:00
7:35 PM,87.8,60.8,40,29.74,10.0,SSE,8.1,-,N/A,,Clear,150,2013-08-19 02:35:00
7:55 PM,84.2,60.8,45,29.76,10.0,South,8.1,-,N/A,,Clear,170,2013-08-19 02:55:00
8:15 PM,84.2,62.6,48,29.76,10.0,South,3.5,-,N/A,,Clear,190,2013-08-19 03:15:00
8:35 PM,82.4,60.8,48,29.77,10.0,East,4.6,-,N/A,,Clear,90,2013-08-19 03:35:00
8:55 PM,84.2,60.8,45,29.78,10.0,Calm,Calm,-,N/A,,Clear,0,2013-08-19 03:55:00
9:15 PM,84.2,60.8,45,29.78,10.0,WNW,4.6,-,N/A,,Clear,300,2013-08-19 04:15:00
9:35 PM,80.6,60.8,51,29.78,10.0,West,4.6,-,N/A,,Clear,270,2013-08-19 04:35:00
9:55 PM,80.6,62.6,54,29.78,10.0,Calm,Calm,-,N/A,,Clear,0,2013-08-19 04:55:00
10:15 PM,80.6,62.6,54,29.77,10.0,West,4.6,-,N/A,,Clear,260,2013-08-19 05:15:00
10:35 PM,78.8,62.6,57,29.78,10.0,Calm,Calm,-,N/A,,Clear,0,2013-08-19 05:35:00
10:55 PM,77.0,60.8,57,29.78,10.0,SE,3.5,-,N/A,,Clear,130,2013-08-19 05:55:00
11:15 PM,75.2,62.6,65,29.80,10.0,SSE,6.9,-,N/A,,Clear,150,2013-08-19 06:15:00
11:35 PM,77.0,62.6,61,29.82,10.0,ESE,4.6,-,N/A,,Clear,120,2013-08-19 06:35:00
11:55 PM,77.0,62.6,61,29.81,10.0,Calm,Calm,-,N/A,,Clear,0,2013-08-19 06:55:00